User: anonymous   Login
Location: Corralito
(10.2667°N, 66.9500°W)
Time: 12:46:31
(UTC+00:00)
Language:

Okean 3 - Orbit

View from above orbital plane
View from above orbital plane
View from above satellite
View from above satellite

Ground track
Ground track

The orbit data is extracted from the following two-line orbital elements,

1 21397U 91039A   23271.84076646  .00003472  00000-0  30598-3 0  9994
2 21397  82.5173 116.0599 0018203 111.2131 249.1037 14.96056208731148
Epoch (UTC): 28 September 2023 20:10:42
Eccentricity: 0.0018203
inclination: 82.5173°
perigee height: 566 km
apogee height: 592 km
right ascension of ascending node: 116.0599°
argument of perigee: 111.2131°
revolutions per day: 14.96056208
mean anomaly at epoch: 249.1037°
orbit number at epoch: 73114

The dashed part of the orbit path shows where the satellite is in the earth's shadow,  

DLR